User: anonymous   Login
Location: Unspecified
(90.0000°S, 0.0000°E)
Time: 10:17:30
(UTC+00:00)
Language:

AO-92 - Orbit

View from above orbital plane
View from above orbital plane
View from above satellite
View from above satellite

Ground track
Ground track

The orbit data is extracted from the following two-line orbital elements,

1 43137U 18004AC  20333.14167134  .00003068  00000-0  12758-3 0  9992
2 43137  97.4311  43.0779 0008680 190.2224 169.8839 15.24516809159973
Epoch (UTC): 28 November 2020 03:24:00
Eccentricity: 0.0008680
inclination: 97.4311°
perigee height: 486 km
apogee height: 498 km
right ascension of ascending node: 43.0779°
argument of perigee: 190.2224°
revolutions per day: 15.24516809
mean anomaly at epoch: 169.8839°
orbit number at epoch: 15997

The dashed part of the orbit path shows where the satellite is in the earth's shadow,  

DLR